Regional Weather Roundup
Issued by NWS

Home | Current Version | Previous Version | Graphics & Text | Print | Product List | Glossary On
Versions: 1 2 3 4 5 6 7 8 9 10 11 12 13 14 15 16 17 18 19 20 21 22 23 24 25 26 27 28 29 30 31 32 33 34 35 36 37 38 39 40 41 42 43 44 45 46 47 48 49 50
000
ASUS44 KMEG 041500
RWRTN
TENNESSEE HOURLY STATE WEATHER ROUNDUP
NATIONAL WEATHER SERVICE MEMPHIS TN
1000 AM CDT SAT JUL 04 2015

TNZ002-004-019-021-049-052-054-088>092-041600-
WEST TENNESSEE

CITY           SKY/WX    TMP DP  RH WIND       PRES   REMARKS
MEMPHIS INTL   LGT RAIN  75  71  87 SW7       30.01R
NWS MEMPHIS      N/A     74 N/A N/A MISG        N/A
JACKSON        CLOUDY    74  70  87 S7        30.01R
DYERSBURG        N/A    N/A N/A N/A MISG        N/A
PARIS          CLOUDY    73  68  83 CALM      30.01S
LEXINGTON      CLOUDY    72  70  94 SW5       30.01R
$$

TNZ008-025-027-028-033-062-065-066-041600-
NORTH MIDDLE TENNESSEE

CITY           SKY/WX    TMP DP  RH WIND       PRES   REMARKS
NASHVILLE      CLOUDY    78  72  81 CALM      30.02R
CLARKSVILLE    CLOUDY    76  69  79 CALM      30.00S
COOKEVILLE     CLOUDY    73  72  94 SW5       30.03S
CROSSVILLE     CLOUDY    70  66  87 SW6       30.08R
$$

TNZ061-075-076-078-094-096-097-041600-
SOUTH MIDDLE TENNESSEE

CITY           SKY/WX    TMP DP  RH WIND       PRES   REMARKS
FAYETTEVILLE   PTSUNNY   68  66  94 SW8       30.06R
TULLAHOMA      CLOUDY    70  66  88 SW6       30.06S
WINCHESTER     CLOUDY    70  68  94 SW8       30.07R
SHELBYVILLE    CLOUDY    73  72  94 S5          N/A
$$

TNZ017-018-042-046-047-041600-
NORTHEAST TENNESSEE

CITY           SKY/WX    TMP DP  RH WIND       PRES   REMARKS
TRI CITIES     CLOUDY    71  67  87 SW10      30.04S
ELIZABETHTON   DRIZZLE   68  66  94 SW6       30.05S FOG
$$

TNZ012-013-036-069-073-074-041600-
CENTRAL EAST TENNESSEE

CITY           SKY/WX    TMP DP  RH WIND       PRES   REMARKS
KNOXVILLE      CLOUDY    73  67  81 SW14      30.04R
OAK RIDGE      CLOUDY    72  68  87 SW5       30.05R
GATLINBURG     CLOUDY    73  64  73 W6        30.03S
$$

TNZ083-085-099-041600-
SOUTHEAST TENNESSEE

CITY           SKY/WX    TMP DP  RH WIND       PRES   REMARKS
CHATTANOOGA    CLOUDY    73  69  87 S5        30.06R FOG
$$

SKY/WX REPORTED AS FAIR MEANS FEW OR NO CLOUDS BELOW
12 THOUSAND FEET.



USA.gov is the U.S. government's official web portal to all federal, state and local government web resources and services.